This demonstration page uses our WeatherBlox Daily Observations layout. Learn more.

Hourly Observations for February 17, 2015

Temp ( °F °C ) Dew Point ( °F °C ) Humidity (%) Winds ( mph kmh ) Pressure ( in mb ) Visibility ( mi km ) Precip ( " mm )
12:15 am 00:15 Cloudy 29 -1.5 26 -3.4 87 87 NW 13 20 30.21 1023 10 16.0934 0 0
12:35 am 00:35 Cloudy 29 -1.7 25 -3.7 86 86 NW 10 17 30.21 1023 10 16.0934 0 0
12:55 am 00:55 Mostly Cloudy 29 -1.7 25 -4 85 85 NNW 12 19 30.21 1023 10 16.0934 0 0
1:15 am 01:15 Cloudy 31 -0.8 26 -3.3 83 83 N 15 24 30.21 1023 10 16.0934 0 0
1:35 am 01:35 Mostly Cloudy 30 -1.2 25 -4.1 81 81 N 14 22 30.21 1023 10 16.0934 0 0
1:55 am 01:55 Partly Cloudy 28 -2 24 -4.6 83 83 N 8 13 30.21 1023 10 16.0934 0 0
2:15 am 02:15 Mostly Cloudy 28 -2 24 -4.5 83 83 N 8 13 30.21 1023 10 16.0934 0 0
2:35 am 02:35 Mostly Cloudy 28 -2.3 23 -4.8 83 83 N 7 11 30.21 1023 10 16.0934 0 0
2:55 am 02:55 Mostly Cloudy 28 -2.5 23 -4.8 84 84 N 7 11 30.21 1023 10 16.0934 0 0
3:15 am 03:15 Mostly Cloudy 28 -2.5 24 -4.5 86 86 N 7 11 30.21 1023 10 16.0934 0 0
3:35 am 03:35 Cloudy 28 -2.4 25 -4.1 88 88 NNE 7 11 30.21 1023 10 16.0934 0 0
3:55 am 03:55 Cloudy 27 -2.6 24 -4.4 88 88 N 6 9 30.24 1024 10 16.0934 0 0
4:15 am 04:15 Partly Cloudy 25 -4 22 -5.7 88 88 Calm 30.21 1023 10 16.0934 0 0
4:35 am 04:35 Clear 24 -4.2 22 -5.6 90 90 Calm 30.21 1023 10 16.0934 0 0
4:55 am 04:55 Clear 23 -5.2 20 -6.5 91 91 Calm 30.21 1023 10 16.0934 0 0
5:15 am 05:15 Clear 21 -6 19 -7 93 93 WSW 5 7 30.24 1024 7 11.26538 0 0
5:35 am 05:35 Clear 21 -6 19 -7 93 93 WSW 3 6 30.24 1024 10 16.0934 0 0
5:55 am 05:55 Clear 19 -7 17 -8.1 92 92 WSW 5 7 30.24 1024 10 16.0934 0 0
6:15 am 06:15 Clear 19 -7.1 17 -8.1 93 93 W 6 9 30.24 1024 10 16.0934 0 0
6:35 am 06:35 Mostly Cloudy 22 -5.6 20 -6.6 93 93 WSW 9 15 30.24 1024 10 16.0934 0 0
6:55 am 06:55 Cloudy 23 -5 20 -6.7 88 88 WSW 7 11 30.21 1023 10 16.0934 0 0
7:15 am 07:15 Cloudy 24 -4.5 20 -6.8 84 84 WSW 12 19 30.21 1023 10 16.0934 0 0
7:35 am 07:35 Cloudy 24 -4.2 20 -6.4 85 85 WSW 10 17 30.21 1023 10 16.0934 0 0
7:55 am 07:55 Cloudy 25 -4 21 -6.2 85 85 WSW 9 15 30.18 1022 10 16.0934 0 0
8:15 am 08:15 Cloudy 26 -3.6 21 -6 84 84 WSW 15 24 30.18 1022 10 16.0934 0 0
8:35 am 08:35 Mostly Cloudy 26 -3.6 22 -5.5 87 87 WSW 9 15 30.18 1022 10 16.0934 0 0
8:55 am 08:55 Partly Cloudy 27 -2.6 24 -4.4 88 88 WSW 12 19 30.15 1021 10 16.0934 0 0
9:15 am 09:15 Mostly Cloudy 28 -2.4 24 -4.2 88 88 W 13 20 30.15 1021 10 16.0934 0 0
9:35 am 09:35 Cloudy 29 -1.6 25 -4 84 84 W 17 28 30.15 1021 10 16.0934 0 0
9:55 am 09:55 Cloudy 31 -0.7 25 -3.9 79 79 NNW 21 33 30.18 1022 10 16.0934 0 0
10:15 am 10:15 Cloudy 26 -3.1 20 -6.9 75 75 N 30 48 30.24 1024 10 16.0934 0 0
10:35 am 10:35 Cloudy 24 -4.5 18 -7.6 79 79 N 25 41 30.24 1024 10 16.0934 0 0
10:55 am 10:55 Cloudy 24 -4.2 17 -8.3 73 73 N 18 30 30.24 1024 10 16.0934 0 0
11:15 am 11:15 Cloudy 26 -3.5 17 -8.2 70 70 N 25 41 30.27 1025 10 16.0934 0 0
11:35 am 11:35 Partly Cloudy 24 -4.5 13 -10.5 63 63 N 24 39 30.27 1025 10 16.0934 0 0
11:55 am 11:55 Partly Cloudy 24 -4.4 12 -11 60 60 NNW 22 35 30.27 1025 10 16.0934 0 0
12:15 pm 12:15 Partly Cloudy 26 -3.3 13 -10.7 57 57 NNW 20 31 30.27 1025 10 16.0934 0 0
12:35 pm 12:35 Partly Cloudy 26 -3.2 12 -11.3 54 54 NNW 22 35 30.27 1025 10 16.0934 0 0
12:55 pm 12:55 Partly Cloudy 26 -3.4 9 -12.6 49 49 N 22 35 30.27 1025 10 16.0934 0 0
1:15 pm 13:15 Sunny 26 -3.1 8 -13.6 45 45 NNW 15 24 30.27 1025 10 16.0934 0 0
1:35 pm 13:35 Sunny 26 -3.2 5 -14.9 40 40 NW 21 33 30.27 1025 10 16.0934 0 0
1:55 pm 13:55 Sunny 27 -3 4 -15.5 38 38 NNW 18 30 30.24 1024 10 16.0934 0 0
2:15 pm 14:15 Partly Cloudy 27 -2.6 4 -15.4 37 37 NW 25 41 30.27 1025 10 16.0934 0 0
2:35 pm 14:35 Sunny 27 -2.7 4 -15.6 37 37 NNW 24 39 30.24 1024 10 16.0934 0 0
2:55 pm 14:55 Sunny 28 -2.5 4 -15.8 36 36 NNW 24 39 30.21 1023 10 16.0934 0 0
3:15 pm 15:15 Sunny 28 -2.5 1 -17.1 32 32 NNW 24 39 30.21 1023 10 16.0934 0 0
3:35 pm 15:35 Sunny 28 -2.5 4 -15.8 36 36 NW 24 39 30.21 1023 10 16.0934 0 0
3:55 pm 15:55 Sunny 28 -2.3 4 -15.8 35 35 NW 22 35 30.21 1023 10 16.0934 0 0
4:15 pm 16:15 Sunny 28 -2 3 -16.1 33 33 NNW 23 37 30.21 1023 10 16.0934 0 0
4:35 pm 16:35 Sunny 28 -2.3 3 -16.1 34 34 NNW 22 35 30.21 1023 10 16.0934 0 0
4:55 pm 16:55 Sunny 28 -2.3 3 -15.9 35 35 NNW 20 31 30.21 1023 10 16.0934 0 0
5:15 pm 17:15 Sunny 27 -2.6 3 -15.9 36 36 NNW 17 28 30.24 1024 10 16.0934 0 0
5:35 pm 17:35 Sunny 27 -2.7 4 -15.6 37 37 NW 22 35 30.21 1023 10 16.0934 0 0
5:55 pm 17:55 Sunny 26 -3.1 4 -15.7 38 38 NNW 13 20 30.21 1023 10 16.0934 0 0
6:15 pm 18:15 Clear 25 -3.9 4 -15.3 41 41 NNW 13 20 30.21 1023 10 16.0934 0 0
6:35 pm 18:35 Clear 24 -4.5 5 -15 44 44 NNW 9 15 30.21 1023 10 16.0934 0 0
6:55 pm 18:55 Clear 23 -5 6 -14.6 47 47 NNW 9 15 30.21 1023 10 16.0934 0 0
7:15 pm 19:15 Clear 22 -5.3 6 -14.2 50 50 NNW 7 11 30.24 1024 10 16.0934 0 0
7:35 pm 19:35 Mostly Cloudy 21 -6.2 7 -13.9 55 55 WNW 5 7 30.27 1025 10 16.0934 0 0
7:55 pm 19:55 Partly Cloudy 20 -6.5 7 -14 56 56 WNW 6 9 30.27 1025 10 16.0934 0 0
8:15 pm 20:15 Clear 18 -8 6 -14.3 61 61 NW 6 9 30.27 1025 10 16.0934 0 0
8:35 pm 20:35 Clear 19 -7.1 9 -13 63 63 NNW 8 13 30.27 1025 10 16.0934 0 0
8:55 pm 20:55 Clear 21 -6.2 9 -13 59 59 NNW 15 24 30.27 1025 10 16.0934 0 0
9:15 pm 21:15 Clear 20 -6.4 8 -13.1 59 59 NNW 12 19 30.27 1025 10 16.0934 0 0
9:35 pm 21:35 Clear 20 -6.6 7 -14 56 56 NNW 10 17 30.27 1025 10 16.0934 0 0
9:55 pm 21:55 Clear 19 -7.1 6 -14.7 55 55 NW 8 13 30.3 1026 10 16.0934 0 0
10:15 pm 22:15 Partly Cloudy 20 -6.4 4 -15.5 49 49 NW 12 19 30.3 1026 10 16.0934 0 0
10:35 pm 22:35 Partly Cloudy 20 -6.9 4 -15.5 51 51 NW 8 13 30.3 1026 10 16.0934 0 0
10:55 pm 22:55 Clear 19 -7 4 -15.5 51 51 NNW 10 17 30.3 1026 10 16.0934 0 0
11:15 pm 23:15 Clear 19 -7.3 4 -15.5 52 52 NNW 9 15 30.3 1026 10 16.0934 0 0
11:35 pm 23:35 Clear 18 -8 4 -15.5 55 55 NW 7 11 30.3 1026 10 16.0934 0 0
11:55 pm 23:55 Clear 17 -8.5 4 -15.3 58 58 NW 10 17 30.3 1026 10 16.0934 0 0

Powered by AerisWeather